Location: Indian Springs
(36.5700°N, 115.6700°W)
Time: 03:28:15
(UTC-07:00)

Amateur Radio Satellites - All Passes

Search period start: 05 August 2015 02:58
Search period end: 06 August 2015 02:58
Location: Indian Springs, 36.5700°N, 115.6700°W

Satellite Date Start Highest point End Downlink Frequencies (MHz)
Time Altitude Azimuth
AO-7 05 Aug 02:58:19 03:00:22 11° 86° (E) 03:03:14 29.400- 29.500
MOZHAYETS 4 05 Aug 03:16:34 03:19:04 15° 67° (ENE) 03:21:45
RS-15 05 Aug 03:19:34 03:27:23 20° 25° (NNE) 03:35:48 29.354- 29.394
KKS-1 05 Aug 03:28:47 03:33:00 43° 262° (W) 03:37:13 437.445
ISS 05 Aug 03:42:57 03:45:02 16° 230° (SW) 03:47:01 145.825
GONETS M04 05 Aug 03:54:50 03:56:41 11° 78° (ENE) 03:59:22
ITAMSAT 1 05 Aug 03:55:52 04:00:43 40° 289° (WNW) 04:05:29 435.822/435.867
Gurwin Techsat 1B 05 Aug 03:59:53 04:04:38 33° 290° (WNW) 04:09:18 435.225
JUGNU 05 Aug 04:02:17 04:05:30 15° 184° (S) 04:08:42 437.505
SRMSAT 05 Aug 04:14:28 04:17:32 14° 175° (S) 04:20:36 437.500
CUSAT 1 05 Aug 04:27:03 04:29:06 18° 284° (WNW) 04:31:00 437.405
STARS 05 Aug 04:28:47 04:31:34 16° 268° (W) 04:34:11 437.465
HORYU 2 05 Aug 04:29:01 04:33:30 62° 101° (E) 04:37:58 437.375
JAS-2 05 Aug 04:38:22 04:46:01 55° 289° (WNW) 04:53:18 435.910
DANDE 05 Aug 04:38:42 04:41:19 25° 281° (W) 04:43:38 436.750
AO-7 05 Aug 04:46:22 04:54:43 75° 105° (ESE) 05:03:00 29.400- 29.500
MOZHAYETS 4 05 Aug 04:51:23 04:55:54 50° 261° (W) 05:00:26
CUBESAT XI-V 05 Aug 05:21:39 05:25:29 26° 70° (ENE) 05:29:23 437.345
RS-15 05 Aug 05:31:37 05:43:13 59° 53° (NE) 05:55:16 29.354- 29.394
GONETS M04 05 Aug 05:43:38 05:52:17 75° 94° (E) 06:00:58
CUTE-I 05 Aug 05:57:16 06:00:35 17° 91° (E) 06:04:09 437.470
STRAND 1 05 Aug 06:02:47 06:06:45 24° 68° (ENE) 06:10:50 437.568
SRMSAT 05 Aug 06:02:51 06:05:56 14° 185° (S) 06:08:57 437.500
PRISM 05 Aug 06:06:49 06:09:25 17° 68° (ENE) 06:12:08 437.425
HORYU 2 05 Aug 06:07:58 06:09:39 12° 295° (WNW) 06:11:05 437.375
Cosmos 2499 05 Aug 06:15:08 06:20:45 25° 84° (E) 06:26:58 435.465 / 435.565
BEESAT 3 05 Aug 06:32:52 06:35:34 17° 48° (NE) 06:38:21 437.485
AO-7 05 Aug 06:40:31 06:46:48 23° 302° (WNW) 06:52:45 29.400- 29.500
Cubesat XI-IV 05 Aug 06:41:22 06:46:31 48° 99° (E) 06:51:38 437.490
CUBESAT XI-V 05 Aug 06:58:51 07:02:51 27° 265° (W) 07:06:46 437.345
PCSat 05 Aug 07:12:50 07:17:07 25° 108° (ESE) 07:21:32 145.827
CUTE-I 05 Aug 07:35:53 07:41:02 51° 287° (WNW) 07:46:08 437.470
BEESAT 2 05 Aug 07:36:39 07:40:41 62° 58° (ENE) 07:44:39 435.950
BRITE-PL 05 Aug 07:36:54 07:40:29 23° 95° (E) 07:44:24 437.365/2234.400
SO-50 05 Aug 07:38:48 07:43:07 38° 114° (ESE) 07:47:38 436.795
PRISM 05 Aug 07:40:43 07:44:35 36° 262° (W) 07:48:26 437.425
STRAND 1 05 Aug 07:41:00 07:45:46 37° 263° (W) 07:50:30 437.568
GONETS M04 05 Aug 07:43:48 07:50:10 21° 295° (WNW) 07:56:07
RS-15 05 Aug 07:44:38 07:55:25 40° 252° (WSW) 08:06:09 29.354- 29.394
AIST 2 05 Aug 08:03:13 08:06:44 26° 51° (NE) 08:10:15 435.215
Cosmos 2499 05 Aug 08:06:02 08:13:20 56° 282° (WNW) 08:21:14 435.465 / 435.565
BEESAT 3 05 Aug 08:09:55 08:13:42 38° 245° (WSW) 08:17:22 437.485
M-CUBED/EXP-1 PRIME 05 Aug 08:19:52 08:22:16 15° 61° (ENE) 08:24:56 437.505
Cubesat XI-IV 05 Aug 08:22:29 08:26:17 20° 294° (WNW) 08:29:55 437.490
DOVE 4 05 Aug 08:27:32 08:31:40 29° 96° (E) 08:36:04 437.250
SEEDS 05 Aug 08:32:02 08:34:44 17° 92° (E) 08:37:35 437.485
CUTE 1.7 + AOD 2 05 Aug 08:41:46 08:45:27 28° 95° (E) 08:49:10 437.475
AUBIESAT-1 05 Aug 08:43:35 08:46:53 23° 64° (ENE) 08:50:27 437.475
AAUSAT CUBESAT 2 05 Aug 08:46:37 08:49:09 16° 92° (E) 08:51:50 437.432
CANX-2 05 Aug 08:50:38 08:54:41 40° 98° (E) 08:58:43 2200.000
PCSat 05 Aug 08:55:16 09:00:20 39° 303° (WNW) 09:05:25 145.827
GOMX 1 05 Aug 09:01:21 09:06:03 75° 283° (WNW) 09:11:05 467.674
Oscar 11 05 Aug 09:05:40 09:06:55 11° 89° (E) 09:08:27 145.826/435.025
HO-68 05 Aug 09:08:27 09:15:34 61° 102° (ESE) 09:22:40 435.675
BRITE-PL 05 Aug 09:15:00 09:19:03 31° 287° (WNW) 09:23:18 437.365/2234.400
UWE-3 05 Aug 09:15:14 09:17:28 14° 90° (E) 09:19:57 435.000/436.395/437.385
SO-50 05 Aug 09:19:49 09:23:48 25° 312° (NW) 09:27:47 436.795
O/OREOS (USA 219) 05 Aug 09:19:58 09:20:41 10° 53° (NE) 09:21:41 437.305
UNISAT 6 05 Aug 09:20:09 09:22:08 13° 66° (ENE) 09:24:23 437.425
YUBILEINY 05 Aug 09:21:32 09:24:51 13° 59° (ENE) 09:28:55 435.215
DELFI C3 05 Aug 09:34:46 09:37:10 16° 92° (E) 09:39:42 145.870
CUBEBUG 2 05 Aug 09:39:08 09:43:22 33° 96° (E) 09:47:42 437.445
CINEMA 3 05 Aug 09:39:25 09:44:15 75° 102° (ESE) 09:49:13 145.822/145.860
AIST 2 05 Aug 09:41:45 09:45:14 25° 247° (WSW) 09:48:35 435.215
COMPASS 1 05 Aug 09:43:31 09:47:45 84° 283° (WNW) 09:51:56 437.405
M-CUBED/EXP-1 PRIME 05 Aug 09:52:39 09:56:36 47° 257° (WSW) 10:00:54 437.505
POLYITAN 1 05 Aug 09:57:01 09:58:29 12° 67° (ENE) 10:00:11 437.675
TIGRISAT 05 Aug 09:59:18 10:03:13 34° 72° (ENE) 10:07:17 435.000
ANTELSAT 05 Aug 10:03:01 10:07:05 39° 73° (ENE) 10:11:18 437.575/2403.000
DOVE 4 05 Aug 10:05:18 10:09:21 27° 289° (WNW) 10:13:29 437.250
SEEDS 05 Aug 10:06:47 10:10:40 34° 287° (WNW) 10:14:28 437.485
POPSAT HIP 1 05 Aug 10:10:50 10:13:29 17° 68° (ENE) 10:16:16 437.405
ZACube-1 05 Aug 10:15:08 10:19:34 48° 99° (E) 10:24:02 437.345
AUBIESAT-1 05 Aug 10:17:49 10:21:26 28° 261° (W) 10:25:15 437.475
CUTE 1.7 + AOD 2 05 Aug 10:17:54 10:21:13 21° 290° (WNW) 10:24:25 437.475
QB50P2 05 Aug 10:19:09 10:22:21 22° 70° (ENE) 10:25:39 145.880/145.840
AAUSAT CUBESAT 2 05 Aug 10:21:03 10:24:54 35° 287° (WNW) 10:28:40 437.432
HUMSAT D 05 Aug 10:23:17 10:26:38 22° 94° (E) 10:30:05 437.325/437.525
CANX-2 05 Aug 10:27:40 10:30:18 16° 292° (WNW) 10:32:45 2200.000
50 SAT 05 Aug 10:32:50 10:33:42 11° 90° (E) 10:34:49 437.505
FUNcube-1 05 Aug 10:34:31 10:39:06 79° 102° (ESE) 10:43:41 145.935
DUCHIFAT 1 05 Aug 10:37:34 10:41:16 33° 72° (ENE) 10:45:03 145.980
Oscar 11 05 Aug 10:39:15 10:43:30 53° 285° (WNW) 10:47:43 145.826/435.025
UKube-1 05 Aug 10:41:49 10:44:59 20° 94° (E) 10:48:16 .
NANOSAT C BR1 05 Aug 10:43:37 10:47:31 40° 73° (ENE) 10:51:28 145.865
QB50P1 05 Aug 10:44:22 10:48:18 41° 73° (ENE) 10:52:17 145.935-145.965
UWE-3 05 Aug 10:49:48 10:54:19 52° 285° (WNW) 10:58:52 435.000/436.395/437.385
UNISAT 6 05 Aug 10:54:14 10:58:29 51° 261° (W) 11:02:52 437.425
O/OREOS (USA 219) 05 Aug 10:56:11 11:00:47 77° 252° (WSW) 11:05:21 437.305
HO-68 05 Aug 10:57:13 11:02:50 24° 298° (WNW) 11:08:13 435.675
DELFI C3 05 Aug 11:08:42 11:12:22 33° 287° (WNW) 11:15:58 145.870
CUBEBUG 1 05 Aug 11:11:57 11:14:36 16° 92° (E) 11:17:27 437.445
AISAT 05 Aug 11:12:02 11:15:55 30° 97° (E) 11:19:52 437.250
YUBILEINY 05 Aug 11:14:43 11:23:35 75° 81° (E) 11:32:25 435.215
CUBEBUG 2 05 Aug 11:16:11 11:19:53 23° 290° (WNW) 11:23:31 437.445
DX 1 05 Aug 11:16:35 11:20:53 59° 101° (E) 11:25:10 434.975-435.025
CINEMA 3 05 Aug 11:19:22 11:20:56 11° 294° (WNW) 11:22:14 145.822/145.860
BUGSAT 1 05 Aug 11:23:14 11:27:16 74° 76° (ENE) 11:31:17 437.445
POLYITAN 1 05 Aug 11:29:53 11:33:59 52° 260° (W) 11:38:06 437.675
AIST 1 05 Aug 11:34:33 11:38:53 82° 96° (E) 11:43:13
TIGRISAT 05 Aug 11:37:01 11:40:06 18° 268° (W) 11:43:07 435.000
ANTELSAT 05 Aug 11:41:19 11:44:07 16° 269° (W) 11:46:45 437.575/2403.000
POPSAT HIP 1 05 Aug 11:45:15 11:49:06 34° 263° (W) 11:52:56 437.405
Cosmos 2491 05 Aug 11:46:45 11:55:24 68° 93° (E) 12:04:03 435.465 / 435.565
VELOX 1 05 Aug 11:49:09 11:53:35 81° 102° (ESE) 11:58:00 145.980
ZACube-1 05 Aug 11:52:49 11:55:34 15° 292° (WNW) 11:58:07 437.345
QB50P2 05 Aug 11:54:33 11:58:08 26° 265° (W) 12:01:40 145.880/145.840
HUMSAT D 05 Aug 11:58:39 12:02:22 27° 289° (WNW) 12:06:00 437.325/437.525
Oscar 19 05 Aug 12:03:08 12:05:22 13° 64° (ENE) 12:07:53 437.125/150
50 SAT 05 Aug 12:04:45 12:08:35 46° 286° (WNW) 12:12:22 437.505
DUCHIFAT 1 05 Aug 12:14:22 12:17:12 17° 267° (W) 12:19:54 145.980
UKube-1 05 Aug 12:17:22 12:21:09 30° 289° (WNW) 12:24:53 .
ESTCUBE 1 05 Aug 12:20:11 12:24:39 64° 285° (WNW) 12:29:05 437.505/2401.250
NANOSAT C BR1 05 Aug 12:21:15 12:23:35 14° 269° (W) 12:25:43 145.865
QB50P1 05 Aug 12:22:12 12:24:25 14° 269° (W) 12:26:26 145.935-145.965
Cosmos 2504 05 Aug 12:45:33 12:53:14 37° 74° (ENE) 13:01:07 435.465 / 435.565
CUBEBUG 1 05 Aug 12:47:08 12:51:08 37° 287° (WNW) 12:55:07 437.445
AISAT 05 Aug 12:48:57 12:52:20 21° 291° (WNW) 12:55:38 437.250
DX 1 05 Aug 12:55:08 12:56:41 11° 294° (WNW) 12:58:00 434.975-435.025
TISAT 1 05 Aug 12:56:12 13:00:15 43° 99° (E) 13:04:18 437.305
SPROUT 05 Aug 13:03:45 13:08:05 85° 283° (WNW) 13:12:24 437.525
YUBILEINY 05 Aug 13:13:28 13:19:37 20° 278° (W) 13:25:15 435.215
CUSAT 1 05 Aug 13:20:57 13:22:48 12° 72° (ENE) 13:25:11 437.405
ITUPSAT 1 05 Aug 13:22:38 13:24:37 13° 90° (E) 13:26:53 437.325
ITAMSAT 1 05 Aug 13:32:47 13:37:01 26° 68° (ENE) 13:41:20 435.822/435.867
Gurwin Techsat 1B 05 Aug 13:38:50 13:43:32 34° 70° (ENE) 13:48:20 435.225
Oscar 19 05 Aug 13:39:08 13:44:13 69° 259° (W) 13:49:21 437.125/150
Cosmos 2491 05 Aug 13:46:16 13:53:06 24° 293° (WNW) 13:59:35 435.465 / 435.565
AO-7 05 Aug 13:54:15 13:58:49 17° 54° (NE) 14:03:50 29.400- 29.500
BEESAT 05 Aug 14:13:27 14:18:04 48° 99° (E) 14:22:40 436.000
TISAT 1 05 Aug 14:33:21 14:35:40 14° 292° (WNW) 14:37:49 437.305
SWISSCUBE 05 Aug 14:34:41 14:39:29 89° 281° (WNW) 14:44:13 437.505
Cosmos 2504 05 Aug 14:37:33 14:45:34 45° 271° (W) 14:53:30 435.465 / 435.565
VERMONT LUNAR 05 Aug 14:46:11 14:47:51 14° 145° (SE) 14:49:35 437.305
JAS-2 05 Aug 14:46:59 14:53:01 56° 71° (ENE) 14:59:56 435.910
ITUPSAT 1 05 Aug 14:58:15 15:02:56 56° 286° (WNW) 15:07:35 437.325
CUSAT 1 05 Aug 15:00:32 15:05:25 73° 261° (W) 15:11:53 437.405
ITAMSAT 1 05 Aug 15:11:40 15:16:24 34° 263° (W) 15:21:04 435.822/435.867
DANDE 05 Aug 15:16:19 15:20:45 78° 262° (W) 15:26:45 436.750
Gurwin Techsat 1B 05 Aug 15:19:07 15:23:35 26° 265° (W) 15:27:57 435.225
KKS-1 05 Aug 15:22:05 15:26:19 41° 98° (E) 15:30:34 437.445
HORYU 2 05 Aug 15:24:49 15:28:59 42° 73° (ENE) 15:33:13 437.375
AO-7 05 Aug 15:42:10 15:50:31 81° 71° (ENE) 15:58:55 29.400- 29.500
BEESAT 05 Aug 15:52:34 15:55:34 16° 293° (WNW) 15:58:21 436.000
GONETS M04 05 Aug 15:57:26 16:04:57 32° 71° (ENE) 16:12:41
PCSat 05 Aug 16:03:33 16:06:21 14° 45° (NE) 16:09:22 145.827
SO-50 05 Aug 16:12:58 16:16:40 21° 47° (NE) 16:20:25 436.795
STARS 05 Aug 16:18:48 16:23:14 74° 284° (WNW) 16:27:39 437.465
VERMONT LUNAR 05 Aug 16:21:03 16:24:12 77° 158° (SSE) 16:27:22 437.305
PHONESAT 2.4 05 Aug 16:22:45 16:23:39 11° 143° (SE) 16:24:42 2401.200-2431.200
JAS-2 05 Aug 16:33:55 16:38:43 22° 272° (W) 16:43:41 435.910
MOZHAYETS 4 05 Aug 16:48:57 16:53:23 45° 99° (E) 16:57:46
KKS-1 05 Aug 16:59:47 17:02:39 17° 292° (WNW) 17:05:22 437.445
HORYU 2 05 Aug 17:03:07 17:05:52 15° 268° (W) 17:08:26 437.375
CUTE-I 05 Aug 17:16:34 17:20:42 24° 67° (ENE) 17:24:57 437.470
AO-7 05 Aug 17:38:34 17:44:18 19° 269° (W) 17:49:32 29.400- 29.500
PCSat 05 Aug 17:45:06 17:50:33 84° 246° (WSW) 17:55:58 145.827
SO-50 05 Aug 17:52:45 17:57:31 48° 244° (WSW) 18:02:07 436.795
GONETS M04 05 Aug 17:53:48 18:02:07 50° 270° (W) 18:10:23
PHONESAT 2.4 05 Aug 17:57:45 18:01:11 58° 155° (SSE) 18:04:39 2401.200-2431.200
VERMONT LUNAR 05 Aug 17:58:01 18:01:02 40° 354° (N) 18:04:04 437.305
Cosmos 2499 05 Aug 17:59:12 18:07:41 49° 76° (ENE) 18:16:11 435.465 / 435.565
Cubesat XI-IV 05 Aug 18:00:51 18:06:08 63° 74° (ENE) 18:11:27 437.490
MOZHAYETS 4 05 Aug 18:27:22 18:30:15 16° 293° (WNW) 18:32:57
ISS 05 Aug 18:43:06 18:46:14 49° 135° (SE) 18:49:24 145.825
BRITE-PL 05 Aug 18:46:50 18:49:38 18° 70° (ENE) 18:52:32 437.365/2234.400
CUTE-I 05 Aug 18:55:33 19:00:34 39° 262° (W) 19:05:33 437.470
CUBESAT XI-V 05 Aug 18:57:05 19:01:43 90° 172° (S) 19:06:18 437.345
PRISM 05 Aug 19:25:12 19:28:57 34° 98° (E) 19:32:41 437.425
DOVE 4 05 Aug 19:32:14 19:35:04 19° 70° (ENE) 19:38:03 437.250
CUTE 1.7 + AOD 2 05 Aug 19:33:15 19:35:46 16° 68° (ENE) 19:38:28 437.475
HO-68 05 Aug 19:34:43 19:40:59 36° 66° (ENE) 19:47:22 435.675
VERMONT LUNAR 05 Aug 19:34:57 19:38:03 48° 12° (NNE) 19:41:08 437.305
PHONESAT 2.4 05 Aug 19:35:49 19:39:13 48° 351° (N) 19:42:38 2401.200-2431.200
CANX-2 05 Aug 19:41:39 19:44:55 22° 70° (ENE) 19:48:17 2200.000
Cubesat XI-IV 05 Aug 19:43:50 19:46:45 14° 270° (W) 19:49:22 437.490
RS-15 05 Aug 19:52:41 20:02:38 45° 110° (ESE) 20:13:03 29.354- 29.394
Cosmos 2499 05 Aug 19:52:49 20:00:37 35° 273° (W) 20:08:09 435.465 / 435.565
STRAND 1 05 Aug 19:53:31 19:58:38 89° 312° (NW) 20:03:44 437.568
GOMX 1 05 Aug 20:07:46 20:11:57 89° 79° (ENE) 20:16:07 467.674
ISS 05 Aug 20:20:28 20:22:52 18° 332° (NNW) 20:25:13 145.825
BRITE-PL 05 Aug 20:24:10 20:28:03 31° 263° (W) 20:31:46 437.365/2234.400
COMPASS 1 05 Aug 20:31:59 20:36:01 46° 74° (ENE) 20:40:06 437.405
CUBEBUG 2 05 Aug 20:36:01 20:38:59 19° 69° (ENE) 20:42:08 437.445
CINEMA 3 05 Aug 20:39:14 20:43:12 47° 74° (ENE) 20:47:20 145.822/145.860
SEEDS 05 Aug 20:55:35 20:59:49 69° 259° (WSW) 21:04:06 437.485
PRISM 05 Aug 21:01:30 21:04:08 16° 292° (WNW) 21:06:37 437.425
CUTE 1.7 + AOD 2 05 Aug 21:07:22 21:11:24 39° 263° (W) 21:15:26 437.475
AAUSAT CUBESAT 2 05 Aug 21:08:34 21:12:45 75° 259° (WSW) 21:16:59 437.432
DOVE 4 05 Aug 21:09:04 21:12:42 29° 264° (W) 21:16:19 437.250
ZACube-1 05 Aug 21:09:11 21:12:42 27° 71° (ENE) 21:16:23 437.345
VERMONT LUNAR 05 Aug 21:11:41 21:14:44 44° 207° (SSW) 21:17:46 437.305
PHONESAT 2.4 05 Aug 21:14:06 21:17:30 47° 8° (N) 21:20:55 2401.200-2431.200
HUMSAT D 05 Aug 21:14:30 21:15:56 12° 67° (ENE) 21:17:37 437.325/437.525
CANX-2 05 Aug 21:17:01 21:20:43 27° 265° (W) 21:24:22 2200.000
HO-68 05 Aug 21:21:59 21:28:38 40° 262° (W) 21:35:15 435.675
FUNcube-1 05 Aug 21:27:54 21:31:53 42° 73° (ENE) 21:36:00 145.935
BEESAT 2 05 Aug 21:28:29 21:31:31 21° 112° (ESE) 21:34:40 435.950
Oscar 11 05 Aug 21:31:06 21:35:26 84° 78° (ENE) 21:39:49 145.826/435.025
UKube-1 05 Aug 21:35:30 21:37:34 14° 67° (ENE) 21:39:50 .
M-CUBED/EXP-1 PRIME 05 Aug 21:36:53 21:40:02 18° 96° (E) 21:43:14 437.505
UWE-3 05 Aug 21:44:18 21:48:31 86° 258° (WSW) 21:52:51 435.000/436.395/437.385
AIST 1 05 Aug 21:45:33 21:47:59 15° 72° (ENE) 21:50:37
DELFI C3 05 Aug 21:52:33 21:56:37 81° 258° (WSW) 22:00:43 145.870
BEESAT 3 05 Aug 21:59:26 22:03:26 65° 118° (ESE) 22:07:30 437.485
ANTELSAT 05 Aug 21:59:49 22:00:53 11° 88° (E) 22:02:17 437.575/2403.000
AUBIESAT-1 05 Aug 22:00:24 22:04:22 27° 99° (E) 22:08:12 437.475
Cosmos 2491 05 Aug 22:00:52 22:08:02 29° 70° (ENE) 22:15:28 435.465 / 435.565
RS-15 05 Aug 22:04:27 22:14:59 49° 311° (NW) 22:25:49 29.354- 29.394
CUBEBUG 1 05 Aug 22:07:45 22:08:42 11° 66° (ENE) 22:09:55 437.445
AISAT 05 Aug 22:07:59 22:11:14 21° 69° (ENE) 22:14:35 437.250
DX 1 05 Aug 22:09:52 22:13:50 36° 72° (ENE) 22:17:50 434.975-435.025
COMPASS 1 05 Aug 22:10:04 22:11:59 12° 270° (W) 22:13:41 437.405
CUBEBUG 2 05 Aug 22:11:44 22:15:29 31° 264° (W) 22:19:18 437.445
CINEMA 3 05 Aug 22:19:14 22:20:49 12° 271° (W) 22:22:09 145.822/145.860
YUBILEINY 05 Aug 22:20:36 22:24:58 16° 80° (E) 22:29:57 435.215
VELOX 1 05 Aug 22:44:11 22:48:27 51° 74° (ENE) 22:52:44 145.980
50 SAT 05 Aug 22:45:32 22:49:23 63° 76° (ENE) 22:53:17 437.505
ZACube-1 05 Aug 22:45:44 22:49:05 22° 267° (W) 22:52:22 437.345
HUMSAT D 05 Aug 22:47:11 22:51:14 52° 260° (W) 22:55:23 437.325/437.525
UNISAT 6 05 Aug 22:48:25 22:52:50 39° 97° (E) 22:57:16 437.425
PHONESAT 2.4 05 Aug 22:52:05 22:55:33 62° 205° (SSW) 22:59:01 2401.200-2431.200
BEESAT 2 05 Aug 23:05:44 23:09:24 30° 307° (NW) 23:13:04 435.950
FUNcube-1 05 Aug 23:06:18 23:08:31 13° 270° (W) 23:10:33 145.935
UKube-1 05 Aug 23:09:09 23:13:19 48° 260° (W) 23:17:30 .
BUGSAT 1 05 Aug 23:09:31 23:11:14 13° 91° (E) 23:13:11 437.445
M-CUBED/EXP-1 PRIME 05 Aug 23:10:30 23:15:02 42° 292° (WNW) 23:19:18 437.505
ESTCUBE 1 05 Aug 23:17:00 23:21:33 85° 73° (ENE) 23:26:05 437.505/2401.250
POLYITAN 1 05 Aug 23:17:48 23:21:33 29° 96° (E) 23:25:20 437.675
AIST 1 05 Aug 23:21:56 23:25:50 35° 268° (W) 23:29:42
O/OREOS (USA 219) 05 Aug 23:28:38 23:31:16 16° 101° (E) 23:34:08 437.305
TIGRISAT 05 Aug 23:29:16 23:33:59 76° 284° (WNW) 23:38:41 435.000
POPSAT HIP 1 05 Aug 23:32:22 23:36:27 42° 99° (E) 23:40:32 437.405
ANTELSAT 05 Aug 23:33:28 23:38:11 65° 284° (WNW) 23:42:50 437.575/2403.000
AUBIESAT-1 05 Aug 23:34:59 23:38:59 28° 295° (WNW) 23:42:45 437.475
AIST 2 05 Aug 23:36:15 23:40:29 68° 301° (WNW) 23:44:44 435.215
BEESAT 3 05 Aug 23:40:01 23:41:51 12° 316° (NW) 23:43:31 437.485
CUBEBUG 1 05 Aug 23:40:18 23:44:36 62° 259° (W) 23:48:55 437.445
QB50P2 05 Aug 23:41:22 23:45:35 57° 100° (E) 23:49:48 145.880/145.840
AISAT 05 Aug 23:43:44 23:47:39 30° 263° (W) 23:51:31 437.250
TISAT 1 05 Aug 23:46:24 23:49:42 24° 71° (ENE) 23:53:07 437.305
DX 1 05 Aug 23:47:22 23:50:15 17° 267° (W) 23:52:56 434.975-435.025
SPROUT 05 Aug 23:55:18 23:59:26 52° 75° (ENE) 00:03:36 437.525
Cosmos 2491 05 Aug 23:56:58 00:05:24 55° 269° (W) 00:13:46 435.465 / 435.565
DUCHIFAT 1 05 Aug 23:59:35 00:03:52 89° 102° (ESE) 00:08:08 145.980
NANOSAT C BR1 06 Aug 00:06:06 00:10:22 75° 284° (WNW) 00:14:37 145.865
QB50P1 06 Aug 00:07:09 00:11:25 71° 283° (WNW) 00:15:40 145.935-145.965
YUBILEINY 06 Aug 00:12:03 00:20:46 88° 276° (W) 00:29:35 435.215
VELOX 1 06 Aug 00:23:31 00:25:22 12° 270° (W) 00:26:57 145.980
RS-15 06 Aug 00:24:17 00:31:19 17° 342° (NNW) 00:38:12 29.354- 29.394
UNISAT 6 06 Aug 00:25:58 00:29:20 19° 292° (WNW) 00:32:34 437.425
ITUPSAT 1 06 Aug 00:27:48 00:29:43 13° 65° (ENE) 00:31:52 437.325
PHONESAT 2.4 06 Aug 00:31:41 00:33:06 12° 217° (SW) 00:34:24 2401.200-2431.200
BUGSAT 1 06 Aug 00:43:03 00:46:57 43° 286° (WNW) 00:50:52 437.445
POLYITAN 1 06 Aug 00:54:01 00:57:18 21° 290° (WNW) 01:00:28 437.675
O/OREOS (USA 219) 06 Aug 01:06:10 01:10:24 40° 295° (WNW) 01:14:38 437.305
POPSAT HIP 1 06 Aug 01:09:29 01:11:59 15° 292° (WNW) 01:14:19 437.405
ISS 06 Aug 01:12:57 01:15:39 24° 31° (NNE) 01:18:22 145.825
Cosmos 2504 06 Aug 01:14:27 01:19:58 25° 84° (E) 01:26:02 435.465 / 435.565
BEESAT 06 Aug 01:17:29 01:21:58 42° 72° (ENE) 01:26:30 436.000
QB50P2 06 Aug 01:19:34 01:21:03 11° 294° (WNW) 01:22:17 145.880/145.840
TISAT 1 06 Aug 01:21:59 01:25:25 24° 265° (W) 01:28:46 437.305
SPROUT 06 Aug 01:34:30 01:35:54 11° 270° (W) 01:37:01 437.525
SWISSCUBE 06 Aug 01:38:33 01:43:21 79° 75° (ENE) 01:48:10 437.505
ITAMSAT 1 06 Aug 01:51:03 01:51:21 10° 88° (E) 01:52:04 435.822/435.867
Oscar 19 06 Aug 01:53:08 01:58:12 52° 99° (E) 02:03:16 437.125/150
Gurwin Techsat 1B 06 Aug 01:58:30 02:01:37 16° 91° (E) 02:04:59 435.225
JUGNU 06 Aug 01:59:04 02:02:12 15° 175° (S) 02:05:21 437.505
ITUPSAT 1 06 Aug 02:02:20 02:07:06 65° 259° (WSW) 02:11:55 437.325
YUBILEINY 06 Aug 02:13:50 02:19:06 16° 298° (WNW) 02:23:50 435.215
KKS-1 06 Aug 02:18:09 02:21:54 28° 71° (ENE) 02:25:43 437.445
RS-15 06 Aug 02:43:20 02:50:13 17° 18° (NNE) 02:57:35 29.354- 29.394
ISS 06 Aug 02:49:09 02:52:07 32° 227° (SW) 02:55:03 145.825
